Home > Weather > Pokhara > Past weeks

Flag for Nepal Weather for the Past 2 Weeks in Pokhara, Nepal

Now
73 °F

Haze.


Feels Like: 77 °F
Forecast: 63 / 86 °F
Wind: 3 mph from East

Location: Kathmandu Airport

Current Time: Apr 29, 2016 at 10:24:34 AM

Latest Report: Apr 29, 2016 at 9:05 AM


Visibility: 2 mi

Pressure: 30.01 "Hg (27.22 "Hg at 847m altitude)

Humidity: 33%

Dew Point: 43 °F

Location of PokharaLocation

Historic Weather in Pokhara — Graph

°F

Pokhara Temperature Yesterday

Maximum temperature yesterday: 88 °F (at 1:05 PM)
Minimum temperature yesterday: 59 °F (at 5:35 AM)
Average temperature yesterday: 74 °F

High & Low Weather Summary for the Past Weeks

 TemperatureHumidityPressure
High90 °F (Apr 20, 12:35 PM)94% (Apr 18, 3:35 AM)30.07 "Hg (Apr 18, 3:35 AM)
Low55 °F (Apr 19, 5:35 AM)12% (Apr 22, 3:05 PM)29.68 "Hg (Apr 23, 4:05 PM)
Average74 °F49%29.90 "Hg
* Reported Apr 14 9:05 AM — Apr 29 9:05 AM, Pokhara, Weather by CustomWeather, © 2016

Note: Actual official high and low records may vary slightly from our data, if they occured in-between our weather recording intervals... More about our weather records

Advertising

Pokhara Weather History for the Previous 24 Hours

Scroll right to see more
 ConditionsComfort  
Time TempWeatherWind HumidityBarometerVisibility
9:05 AM
Fri, Apr 29
73 °FHaze.3 mph33%30.01 "Hg2 mi
8:05 AM68 °FHaze.3 mph46%30.01 "Hg1 mi
7:35 AM64 °FHaze.No wind52%30.01 "Hg1 mi
7:05 AM61 °FHaze.No wind59%30.01 "Hg1 mi
6:35 AM59 °FHaze.2 mph59%29.98 "Hg1 mi
4:35 AM59 °FHaze.5 mph59%29.95 "Hg3 mi
3:35 AM61 °FHaze.3 mph59%29.92 "Hg3 mi
2:35 AM61 °FHaze.2 mph59%29.92 "Hg3 mi
1:35 AM63 °FHaze.3 mph56%29.95 "Hg3 mi
12:35 AM63 °FHaze.3 mph56%29.95 "Hg3 mi
12:05 AM64 °FHaze.5 mph49%29.95 "Hg3 mi
11:35 PM
Thu, Apr 28
66 °FHaze.5 mph46%29.95 "Hg3 mi
11:05 PM66 °FHaze.5 mph46%29.98 "Hg3 mi
10:35 PM68 °FHaze.5 mph46%29.98 "Hg3 mi
10:05 PM70 °FHaze.3 mph43%29.98 "Hg3 mi
9:35 PM72 °FHaze.3 mph38%29.98 "Hg3 mi
9:05 PM73 °FPassing clouds.5 mph33%29.95 "Hg4 mi
8:35 PM75 °FPassing clouds.3 mph31%29.95 "Hg4 mi
8:05 PM77 °FPassing clouds.8 mph30%29.95 "Hg4 mi
7:35 PM79 °FPassing clouds.2 mph23%29.95 "Hg4 mi
7:05 PM81 °FPassing clouds.6 mph21%29.92 "Hg4 mi
6:05 PM81 °FPassing clouds.8 mph26%29.92 "Hg5 mi
5:05 PM86 °FPassing clouds.13 mphN/AN/AN/A
4:35 PM86 °FPassing clouds.13 mphN/AN/AN/A
4:05 PM86 °FPassing clouds.13 mph14%29.89 "HgN/A
3:35 PM86 °FPassing clouds.14 mph14%29.89 "HgN/A
3:05 PM88 °FPassing clouds.14 mph15%29.89 "HgN/A
2:05 PM86 °FPassing clouds.14 mph17%29.92 "HgN/A
1:35 PM88 °FPassing clouds.10 mph17%29.92 "HgN/A
1:05 PM88 °FPassing clouds.12 mph17%29.95 "HgN/A
11:35 AM86 °FPassing clouds.14 mph17%29.98 "Hg4 mi
11:05 AM86 °FPassing clouds.13 mph17%29.98 "Hg4 mi
10:35 AM84 °FHaze.9 mph20%29.98 "Hg3 mi
Weather by CustomWeather, © 2016

See weather overviewHow to use our weather pages